This is the latest recevied weather packets stored in our database for station/object KB3FKJ. If no packets are shown the sender has not sent any weather packets the latest 10 day(s).
| Time | Temp. | Humidity | Pressure | Rain* | Wind** | Luminosity | Snow |
|---|---|---|---|---|---|---|---|
| 1778188955 | 14.44° C | 45% | 1008 hPa | 0 mm | - | 104 W/m² | - |
| 1778188652 | 15° C | 41% | 1008.1 hPa | 0 mm | - | 311 W/m² | - |
| 1778188348 | 15.56° C | 43% | 1008.1 hPa | 0 mm | - | 122 W/m² | - |
| 1778188045 | 14.44° C | 42% | 1008.1 hPa | 0 mm | - | 307 W/m² | - |
| 1778187742 | 15° C | 41% | 1008.2 hPa | 0 mm | - | 105 W/m² | - |
| 1778187438 | 15° C | 42% | 1007.9 hPa | 0 mm | - | 88 W/m² | - |
| 1778187135 | 15.56° C | 40% | 1008 hPa | 0 mm | - | 107 W/m² | - |
| 1778186831 | 15.56° C | 43% | 1007.9 hPa | 0 mm | - | 509 W/m² | - |
| 1778186529 | 15.56° C | 46% | 1008.2 hPa | 0 mm | - | 117 W/m² | - |
| 1778186227 | 15° C | 45% | 1008.2 hPa | 0 mm | - | 432 W/m² | - |
| 1778185924 | 15° C | 40% | 1008.3 hPa | 0 mm | - | 174 W/m² | - |
| 1778185620 | 15° C | 40% | 1008.2 hPa | 0 mm | - | 116 W/m² | - |
| 1778185316 | 15.56° C | 41% | 1008.3 hPa | 0 mm | - | 157 W/m² | - |
| 1778185011 | 15.56° C | 43% | 1008 hPa | 0 mm | - | 187 W/m² | - |
| 1778184708 | 15° C | 41% | 1008.3 hPa | 0 mm | - | 196 W/m² | - |
| 1778184405 | 15° C | 39% | 1008.2 hPa | 0 mm | - | 160 W/m² | - |
| 1778184100 | 15° C | 40% | 1008.2 hPa | 0 mm | - | 149 W/m² | - |
| 1778183797 | 15° C | 42% | 1008.4 hPa | 0 mm | - | 279 W/m² | - |
| 1778183495 | 15.56° C | 40% | 1008.3 hPa | 0 mm | - | 208 W/m² | - |
| 1778183191 | 15.56° C | 40% | 1008.3 hPa | 0 mm | - | 222 W/m² | - |
| 1778182886 | 15° C | 43% | 1008.3 hPa | 0 mm | - | 288 W/m² | - |
| 1778182584 | 14.44° C | 40% | 1008.5 hPa | 0 mm | - | 544 W/m² | - |
| 1778182281 | 14.44° C | 42% | 1008.4 hPa | 0 mm | - | 128 W/m² | - |
| 1778181977 | 14.44° C | 40% | 1008.6 hPa | 0 mm | - | 123 W/m² | - |
| 1778181674 | 15° C | 38% | 1008.7 hPa | 0 mm | - | 167 W/m² | - |
* Rain latest hour (hover to see other rain measurements)
** Current wind speed in m/s (hover to see current wind gust speed)